Location: *
(43.9905°S, 176.4941°W)
Time: 19:50:06
(UTC+00:00)

N. Korean satellite - Visible Passes

Search period start: 27 February 2021 00:00
Search period end: 09 March 2021 00:00
Orbit: 451 x 503 km, 97.2° (Epoch: 27 February)

Date Brightness Start Highest point End Pass type
(mag) Time Alt. Az. Time Alt. Az. Time Alt. Az.
27 Feb 9.3 15:29:43 10° ENE 15:32:38 22° ESE 15:35:35 10° SSE visible
28 Feb 10.1 15:04:47 10° E 15:06:11 12° ESE 15:07:35 10° SE visible
28 Feb 6.7 16:35:18 10° N 16:38:59 58° W 16:42:44 10° SSW visible
01 Mar 7.2 16:08:34 10° NNE 16:12:15 64° ESE 16:16:01 10° S visible
02 Mar 8.7 15:42:20 10° NE 15:45:38 30° ESE 15:49:00 10° S visible
03 Mar 9.8 15:16:47 10° ENE 15:19:08 16° ESE 15:21:29 10° SSE visible
03 Mar 7.1 16:48:34 10° NNW 16:52:06 39° W 16:55:40 10° SSW visible
04 Mar 6.6 16:21:34 10° NNE 16:25:19 87° WNW 16:29:07 10° SSW visible
05 Mar 8.0 15:55:04 10° NE 15:58:38 43° ESE 16:02:13 10° S visible
06 Mar 9.3 15:29:07 10° ENE 15:32:02 22° ESE 15:34:59 10° SSE visible
06 Mar 7.6 17:01:57 10° NNW 17:05:11 27° W 17:08:28 10° SW visible
07 Mar 10.1 15:04:12 10° E 15:05:33 12° ESE 15:06:53 10° SE visible
07 Mar 6.7 16:34:39 10° N 16:38:20 59° W 16:42:04 10° SSW visible
08 Mar 7.1 16:07:53 10° NNE 16:11:35 63° ESE 16:15:19 10° S visible
